Weather in Kopyl

Russia / Voronezh Oblast     51°39′24″N   41°02′07″E
temp.,
°C
wind,
m/s
gust,
m/s
humid.,
%
clouds,
%
prec.,
mm/h
press.,
hPa
HPBL,
m
3 march, wed
wed300:000nw61098100 0.2 1009528
03:00−1nw599396 0.2 1010514
06:00−2nnw61094100 0.1 1011632
09:00−2nnw71293100 0.2 1014726
12:00−2nnw7108499 0.1 1015852
15:00−2nw698683 0.1 1017766
18:00−5wnw4108956 0.0 1018218
21:00−5w4119228 0.0 1018224
4 march, thu
thu400:00−2wsw6129294 0.0 1016640
03:00−1w6118997 0.1 1015728
06:00−2wsw71490100 0.0 1013558
09:00−1wsw8159094 0.1 1012493
12:00+1wsw8158711 0.0 1010636
15:00+2wsw8168313 0.0 1008761
18:00+1sw716775 0.0 1006521
21:00+1sw7178416 0.0 1005635
5 march, fri
fri500:00+2sw7169196 0.0 1003566
03:00+2wsw7169898 0.1 1002588
06:00+1w81597100 0.1 1002706
09:000w6109898 0.5 1005546
12:00−1nnw4691100 0.3 1007513
15:00−1nnw2487100 0.3 1010501
18:00−3ne2392100 0.0 101197
21:00−3ene2393100 0.1 1012175
6 march, sat
sat600:00−4ne3493100 0.3 1011203
03:00−4nne3689100 0.4 1012254
06:00−6n488896 0.0 1013217
09:00−6nnw589191 0.0 1015316
12:00−5nnw578233 0.0 1016487
15:00−4nnw367917 0.0 1016668
18:00−6nnw22860 0.0 101621
21:00−8nnw23870 0.0 101829
7 march, sun
sun700:00−9n239319 0.0 101966
03:00−9sw119456 0.1 101921
06:00−9ssw369518 0.0 1018124
09:00−6sw6118733 0.0 1016728
12:00−4sw91471100 0.0 10131026
15:00−2sw101765100 0.0 10101185
18:00−2sw81666100 0.0 10081025
21:00−2wsw81674100 0.0 1007912